United States

Ashburn, VA Weather Archive

Below you will find the last 24 hours of weather readings for Ashburn VA

Ashburn VA Today's Weather Data

Observed at: Ashburn, VA

Hour Observerd Temp Pressure Visibility Humidity Dew Point Wind
16:00 Partly Cloudy 93°F (33.9°C) 100.91 kPa 10 miles 57% 75.5°F (24.2°C) 2 mph NNW 347°6 mph
15:00 Partly Cloudy 92°F (33.3°C) 100.88 kPa 10 miles 59% 75.6°F (24.2°C) 1 mph NNW 330°5 mph
14:00 Partly Cloudy 90°F (32.2°C) 100.91 kPa 10 miles 62% 75.2°F (24°C) 2 mph N 2°5 mph
13:00 Mostly Cloudy 88°F (31.1°C) 101.02 kPa 10 miles 66% 75.2°F (24°C) 2 mph N 356°6 mph
12:00 Mostly Cloudy 87°F (30.6°C) 101.19 kPa 10 miles 66% 74.2°F (23.5°C) 2 mph N 350°6 mph
11:00 Mostly Cloudy 84°F (28.9°C) 101.19 kPa 10 miles 71% 73.6°F (23.1°C) 2 mph NNE 13°5 mph
10:00 Overcast 80°F (26.7°C) 101.22 kPa 10 miles 82% 74°F (23.3°C) 2 mph NNW 335°6 mph
09:00 Partly Cloudy 78°F (25.6°C) 101.25 kPa 10 miles 85% 73.1°F (22.8°C) 2 mph NNW 333°6 mph
08:00 Mostly Cloudy 74°F (23.3°C) 101.29 kPa 10 miles 94% 72.2°F (22.3°C) 2 mph NNW 339°4 mph
07:00 Mostly Cloudy 72°F (22.2°C) 101.29 kPa 10 miles 95% 70.5°F (21.4°C) 1 mph NNW 338°4 mph
06:00 Mostly Cloudy 71°F (21.7°C) 101.32 kPa 10 miles 96% 69.8°F (21°C) 1 mph NNW 343°4 mph
05:00 Fair 72°F (22.2°C) 101.35 kPa 10 miles 94% 70.2°F (21.2°C) 1 mph N 351°2 mph
04:00 Fair 73°F (22.8°C) 101.35 kPa 10 miles 93% 70.8°F (21.6°C) 1 mph N 357°2 mph
03:00 Fair 74°F (23.3°C) 101.35 kPa 10 miles 91% 71.2°F (21.8°C) 1 mph W 270°2 mph
02:00 Fair 75°F (23.9°C) 101.39 kPa 10 miles 87% 70.9°F (21.6°C) 1 mph SSW 206°
01:00 Mostly Cloudy 76°F (24.4°C) 101.46 kPa 10 miles 83% 70.4°F (21.4°C) 1 mph S 180°2 mph
00:00 Mostly Cloudy 78°F (25.6°C) 101.46 kPa 10 miles 80% 71.3°F (21.8°C) 1 mph S 191°2 mph
23:00 Fair 79°F (26.1°C) 101.46 kPa 10 miles 78% 71.5°F (22°C) 1 mph SE 135°
22:00 Fair 81°F (27.2°C) 101.46 kPa 10 miles 73% 71.5°F (22°C) 1 mph S 191°2 mph
21:00 Fair 84°F (28.9°C) 101.39 kPa 10 miles 68% 72.3°F (22.4°C) 1 mph SE 135°2 mph
20:00 Fair 87°F (30.6°C) 101.35 kPa 10 miles 62% 72.4°F (22.4°C) 1 mph NE 45°3 mph
19:00 Fair 93°F (33.9°C) 101.39 kPa 10 miles 52% 72.7°F (22.6°C) 1 mph ENE 64°2 mph
18:00 Fair 100°F (37.8°C) 101.35 kPa 10 miles 46% 75.4°F (24.1°C) 1 mph ENE 71°2 mph
17:00 Fair 101°F (38.3°C) 101.39 kPa 10 miles 46% 76.3°F (24.6°C) 1 mph E 90°2 mph


Home | Earthquakes | About Us | Contact Us | Privacy

Copyright Friendly Forecast 2012 - 2020